Location: Springfield
(37.2150°N, 93.2980°W)
Time: 06:25:09
(UTC-06:00)

Tiangong 1 - Visible Passes

Search period start: 22 January 2018 00:00
Search period end: 01 February 2018 00:00
Orbit: 261 x 286 km, 42.8° (Epoch: 22 January)

Date Brightness Start Highest point End Pass type
(mag) Time Alt. Az. Time Alt. Az. Time Alt. Az.
22 Jan 0.4 18:28:04 10° WNW 18:30:31 59° NNE 18:31:25 32° E visible
23 Jan 0.5 18:27:11 10° WNW 18:29:38 73° SSW 18:31:09 20° ESE visible
24 Jan 1.9 18:26:15 10° W 18:28:34 36° SSW 18:30:51 10° SE visible
25 Jan 3.2 18:25:25 10° W 18:27:17 19° SW 18:29:08 10° SSE visible
26 Jan 4.0 18:25:19 10° SW 18:25:46 10° SW 18:26:13 10° SSW visible
